Zurück zum Katalog

SL-3 DEB

AktivLEO
NORAD 21126·DEBRIS·🇷🇺 Russia

Gestartet Aug 28, 1964 von Baikonur Cosmodrome

Loading…

Nächste Überflüge (nächste 24 Stunden)

TLE

AktuellSource: Space-Track

Epoche: Sep 14, 2026, 10:07 UTC

1 21126U 64053C   26257.42207337  .00000301  00000-0  70411-4 0  9991
2 21126  65.0757 245.6823 0060954 206.4180 231.2074 14.69818917279066

Verfolge SL-3 DEB in Echtzeit mit AllMySat

Download on the App Store